Change the Weather History Date:

Wednesday, January 2, 2013

  Actual Average (KJMS) Record (KJMS)
Temperature  
Mean Temperature 16 °F 10 °F  
Max Temperature 28 °F 20 °F 46 °F (1963)
Min Temperature 5 °F 1 °F -30 °F (1928)
Degree Days  
Heating Degree Days 48 54  
Month to date heating degree days 108  
Since 1 July heating degree days 3768  
Cooling Degree Days 0 0  
Month to date cooling degree days 0  
Year to date cooling degree days 0  
Moisture  
Dew Point 15 °F    
Average Humidity 84    
Maximum Humidity 100    
Minimum Humidity 73    
Precipitation  
Precipitation 0.03 in 0.01 in 0.31 in (1950)
Month to date precipitation 0.03  
Year to date precipitation 0.03  
Sea Level Pressure  
Sea Level Pressure 29.97 in    
Wind  
Wind Speed 15 mph (NW)    
Max Wind Speed 24 mph    
Max Gust Speed 36 mph    
Visibility 10 miles    
Events Snow    
T = Trace of Precipitation, MM = Missing Value Source: NWS Daily Summary

Daily Weather History Graph

Daily Weather History Graph

Search for Another Location

Airport or City:

Trip Planner

Search our weather history database for the weather conditions in past years. The results will help you decide how hot, cold, wet, or windy it might be!

Date:

Astronomy

Jan. 02, 2013 Rise Set
Actual Time 8:17 AM CST 4:55 PM CST
Civil Twilight 7:42 AM CST 5:30 PM CST
Nautical Twilight 7:03 AM CST 6:08 PM CST
Astronomical Twilight 6:27 AM CST 6:45 PM CST
Moon 10:52 PM CST (1/2) 10:38 AM CST (1/2)
Length of Visible Light 9h 47m
Length of Day
8h 37m
Waning Gibbous, 75% of the Moon is Illuminated
Jan 2
Waning Gibbous
Jan 4
Last Quarter
Jan 11
New
Jan 18
First Quarter
Jan 26
Full

Hourly Weather History & Observations

Time (CST) Temp. Windchill Dew Point Humidity Pressure Visibility Wind Dir Wind Speed Gust Speed Precip Events Conditions
12:15 AM 19.4 °F 7.9 °F 19.4 °F 100% 29.83 in 7.0 mi West 10.4 mph - 0.03 in Snow Light Snow
12:35 AM 19.4 °F 6.6 °F 19.4 °F 100% 29.82 in 10.0 mi West 12.7 mph - 0.03 in   Overcast
12:55 AM 23.0 °F 13.1 °F 23.0 °F 100% 29.82 in 10.0 mi West 9.2 mph - 0.03 in   Overcast
1:15 AM 23.0 °F 11.7 °F 23.0 °F 100% 29.82 in 10.0 mi West 11.5 mph - N/A   Overcast
1:35 AM 24.8 °F 14.0 °F 24.8 °F 100% 29.81 in 10.0 mi West 11.5 mph - N/A   Overcast
1:55 AM 24.8 °F 12.9 °F 24.8 °F 100% 29.81 in 10.0 mi West 13.8 mph - N/A   Overcast
2:15 AM 24.8 °F 12.9 °F 24.8 °F 100% 29.81 in 10.0 mi West 13.8 mph - N/A   Overcast
2:35 AM 26.6 °F 15.7 °F 26.6 °F 100% 29.81 in 10.0 mi WNW 12.7 mph - N/A   Overcast
2:55 AM 26.6 °F 15.2 °F 26.6 °F 100% 29.81 in 10.0 mi West 13.8 mph - N/A   Overcast
3:15 AM 26.6 °F 15.7 °F 26.6 °F 100% 29.81 in 10.0 mi West 12.7 mph 19.6 mph N/A   Overcast
3:35 AM 28.4 °F 15.4 °F 26.6 °F 93% 29.81 in 10.0 mi WNW 19.6 mph - N/A   Overcast
3:55 AM 28.4 °F 16.2 °F 26.6 °F 93% 29.81 in 10.0 mi WNW 17.3 mph - N/A   Overcast
4:15 AM 28.4 °F 15.4 °F 26.6 °F 93% 29.81 in 10.0 mi WNW 19.6 mph 23.0 mph N/A   Overcast
4:35 AM 28.4 °F 15.8 °F 26.6 °F 93% 29.81 in 10.0 mi WNW 18.4 mph - N/A   Overcast
4:55 AM 28.4 °F 15.8 °F 26.6 °F 93% 29.81 in 10.0 mi WNW 18.4 mph - N/A   Overcast
5:15 AM 28.4 °F 15.1 °F 23.0 °F 80% 29.82 in 10.0 mi NW 20.7 mph 32.2 mph N/A Snow Light Snow
5:35 AM 26.6 °F 13.4 °F 23.0 °F 86% 29.83 in 10.0 mi NW 18.4 mph 25.3 mph N/A Snow Light Snow
6:15 AM 26.6 °F 15.7 °F 23.0 °F 86% 29.83 in 10.0 mi NW 12.7 mph - N/A   Mostly Cloudy
6:35 AM 26.6 °F 16.2 °F 23.0 °F 86% 29.83 in 10.0 mi NW 11.5 mph - N/A   Overcast
6:55 AM 26.6 °F 16.8 °F 23.0 °F 86% 29.83 in 10.0 mi WNW 10.4 mph - N/A   Overcast
7:15 AM 26.6 °F 15.2 °F 24.8 °F 93% 29.84 in 10.0 mi WNW 13.8 mph - N/A   Overcast
7:35 AM 26.6 °F 14.3 °F 23.0 °F 86% 29.84 in 10.0 mi NW 16.1 mph - N/A   Mostly Cloudy
7:55 AM 26.6 °F 11.7 °F 21.2 °F 80% 29.84 in 10.0 mi NNW 24.2 mph 35.7 mph N/A Snow Light Snow
8:15 AM 26.6 °F 13.1 °F 21.2 °F 80% 29.85 in 10.0 mi NW 19.6 mph 27.6 mph N/A Snow Light Snow
8:35 AM 26.6 °F 13.1 °F 21.2 °F 80% 29.86 in 10.0 mi NW 19.6 mph 26.5 mph N/A Snow Light Snow
8:55 AM 26.6 °F 13.1 °F 19.4 °F 74% 29.86 in 10.0 mi NNW 19.6 mph 27.6 mph N/A Snow Light Snow
9:15 AM 26.6 °F 12.4 °F 21.2 °F 80% 29.87 in 10.0 mi NW 21.9 mph - N/A Snow Light Snow
9:35 AM 26.6 °F 13.1 °F 21.2 °F 80% 29.88 in 10.0 mi NNW 19.6 mph 25.3 mph N/A Snow Light Snow
9:55 AM 24.8 °F 11.5 °F 19.4 °F 80% 29.90 in 10.0 mi NNW 17.3 mph 27.6 mph N/A Snow Light Snow
10:15 AM 23.0 °F 8.7 °F 17.6 °F 80% 29.91 in 10.0 mi NNW 18.4 mph 25.3 mph N/A   Overcast
10:35 AM 23.0 °F 9.6 °F 17.6 °F 80% 29.92 in 10.0 mi NNW 16.1 mph - N/A   Overcast
10:55 AM 23.0 °F 10.1 °F 17.6 °F 80% 29.92 in 10.0 mi NNW 15.0 mph 21.9 mph N/A   Overcast
11:15 AM 23.0 °F 9.6 °F 17.6 °F 80% 29.93 in 10.0 mi NNW 16.1 mph 20.7 mph N/A   Overcast
11:35 AM 23.0 °F 9.6 °F 17.6 °F 80% 29.93 in 10.0 mi NNW 16.1 mph - N/A   Overcast
11:55 AM 23.0 °F 10.1 °F 17.6 °F 80% 29.94 in 10.0 mi NNW 15.0 mph 21.9 mph N/A   Overcast
12:15 PM 23.0 °F 10.1 °F 17.6 °F 80% 29.94 in 10.0 mi North 15.0 mph 21.9 mph N/A   Overcast
12:35 PM 23.0 °F 10.1 °F 17.6 °F 80% 29.94 in 10.0 mi NNW 15.0 mph - N/A   Overcast
12:55 PM 23.0 °F 10.1 °F 17.6 °F 80% 29.95 in 10.0 mi North 15.0 mph - N/A Snow Light Snow
1:15 PM 21.2 °F 7.3 °F 15.8 °F 80% 29.95 in 10.0 mi NNW 16.1 mph 21.9 mph N/A Snow Light Snow
1:35 PM 21.2 °F 6.8 °F 15.8 °F 80% 29.96 in 10.0 mi North 17.3 mph 20.7 mph N/A Snow Light Snow
1:55 PM 19.4 °F 6.0 °F 14.0 °F 80% 29.96 in 10.0 mi North 13.8 mph - N/A   Overcast
2:15 PM 19.4 °F 4.5 °F 14.0 °F 80% 29.97 in 10.0 mi NNW 17.3 mph 24.2 mph N/A Snow Light Snow
2:35 PM 19.4 °F 5.5 °F 14.0 °F 80% 29.98 in 10.0 mi North 15.0 mph - N/A Snow Light Snow
2:55 PM 17.6 °F 3.2 °F 12.2 °F 79% 29.99 in 10.0 mi North 15.0 mph - N/A   Overcast
3:15 PM 17.6 °F 4.3 °F 12.2 °F 79% 30.01 in 10.0 mi NNW 12.7 mph - N/A Snow Light Snow
3:35 PM 15.8 °F -0.2 °F 10.4 °F 79% 30.02 in 10.0 mi NNW 17.3 mph 21.9 mph N/A   Scattered Clouds
3:55 PM 15.8 °F 0.3 °F 8.6 °F 73% 30.02 in 10.0 mi North 16.1 mph - N/A Snow Light Snow
4:15 PM 15.8 °F 1.4 °F 8.6 °F 73% 30.03 in 10.0 mi NNW 13.8 mph - N/A   Clear
4:35 PM 14.0 °F -3.0 °F 6.8 °F 73% 30.05 in 10.0 mi NNW 18.4 mph 21.9 mph N/A Snow Light Snow
5:15 PM 10.4 °F -6.0 °F 6.8 °F 85% 30.07 in 10.0 mi NNW 15.0 mph - N/A   Partly Cloudy
5:35 PM 10.4 °F -4.1 °F 5.0 °F 79% 30.08 in 10.0 mi NNW 11.5 mph - N/A   Partly Cloudy
5:55 PM 8.6 °F -8.9 °F 5.0 °F 85% 30.10 in 10.0 mi NNW 16.1 mph - N/A   Partly Cloudy
6:15 PM 10.4 °F -7.2 °F 5.0 °F 79% 30.10 in 10.0 mi NNW 17.3 mph - N/A Snow Light Snow
6:35 PM 8.6 °F -11.4 °F 5.0 °F 85% 30.12 in 10.0 mi NNW 21.9 mph 26.5 mph N/A Snow Light Snow
6:55 PM 8.6 °F -11.0 °F 5.0 °F 85% 30.13 in 10.0 mi NNW 20.7 mph 29.9 mph N/A Snow Light Snow
7:15 PM 8.6 °F -10.5 °F 3.2 °F 79% 30.14 in 10.0 mi NNW 19.6 mph - N/A Snow Light Snow
7:35 PM 8.6 °F -9.5 °F 3.2 °F 79% 30.16 in 10.0 mi NNW 17.3 mph - N/A   Clear
7:55 PM 8.6 °F -8.9 °F 3.2 °F 79% 30.16 in 10.0 mi NNW 16.1 mph - N/A   Scattered Clouds
8:15 PM 6.8 °F -11.8 °F 1.4 °F 79% 30.15 in 10.0 mi NNW 17.3 mph - N/A   Scattered Clouds
8:35 PM 6.8 °F -11.3 °F 1.4 °F 79% 30.16 in 10.0 mi NNW 16.1 mph - N/A   Clear
8:55 PM 6.8 °F -11.8 °F 1.4 °F 79% 30.16 in 10.0 mi NNW 17.3 mph - N/A   Partly Cloudy
9:15 PM 6.8 °F -11.3 °F 1.4 °F 79% 30.17 in 10.0 mi NNW 16.1 mph 21.9 mph N/A   Partly Cloudy
9:35 PM 6.8 °F -10.0 °F 1.4 °F 79% 30.18 in 10.0 mi NNW 13.8 mph - N/A   Mostly Cloudy
9:55 PM 6.8 °F -10.0 °F 1.4 °F 79% 30.19 in 10.0 mi NNW 13.8 mph - N/A   Mostly Cloudy
10:15 PM 5.0 °F -11.6 °F 1.4 °F 85% 30.20 in 10.0 mi NW 12.7 mph - N/A   Mostly Cloudy
10:35 PM 5.0 °F -10.8 °F 1.4 °F 85% 30.20 in 10.0 mi NW 11.5 mph - N/A   Mostly Cloudy
10:55 PM 5.0 °F -10.8 °F 1.4 °F 85% 30.22 in 10.0 mi NW 11.5 mph - N/A   Overcast
11:15 PM 5.0 °F -9.1 °F 1.4 °F 85% 30.22 in 10.0 mi NW 9.2 mph - N/A   Mostly Cloudy
11:35 PM 5.0 °F -11.6 °F 1.4 °F 85% 30.23 in 10.0 mi NW 12.7 mph 17.3 mph N/A   Partly Cloudy
11:55 PM 5.0 °F -11.6 °F -0.4 °F 78% 30.23 in 10.0 mi NW 12.7 mph 18.4 mph N/A   Clear